Regional Weather Roundup
Issued by NWS

Home | Current Version | Previous Version | Graphics & Text | Print | Product List | Glossary On
Versions: 1 2 3 4 5 6 7 8 9 10 11 12 13 14 15 16 17 18 19 20 21 22 23 24 25 26 27 28 29 30 31 32 33 34 35 36 37 38 39 40 41 42 43 44 45 46 47 48 49 50
000
ASUS43 KLOT 061806
RWRIL

ILLINOIS REGIONAL WEATHER ROUNDUP
NATIONAL WEATHER SERVICE CHICAGO/ROMEOVILLE IL
1200 PM CST FRI MAR 06 2015

NOTE: "FAIR" INDICATES FEW OR NO CLOUDS BELOW 12,000 FEET WITH NO
SIGNIFICANT WEATHER AND/OR OBSTRUCTIONS TO VISIBILITY.

* THESE STATIONS ARE NOT UNDER NWS QUALITY CONTROL. THEY ALSO MAY NOT
  REPORT WEATHER SUCH AS PRECIPITATION OR FOG.

ILZ001-002-007-009-015-016-024-061900-
NORTHWEST ILLINOIS

CITY           SKY/WX    TMP DP  RH WIND       PRES   REMARKS
MOLINE         FAIR      28  15  58 SW12G25   30.25F WCI  18
6HR MIN TEMP:   8; 6HR MAX TEMP:  28;

STERLING*      FAIR      27  16  63 SW6       30.27F WCI  20
SAVANNA*       FAIR      25  13  60 S8        30.25F WCI  17
$$

ILZ003-004-008-010-011-017-018-061900-
NORTH CENTRAL ILLINOIS

CITY           SKY/WX    TMP DP  RH WIND       PRES   REMARKS
ROCKFORD       PTSUNNY   20  11  68 S16       30.28F WCI   6
6HR MIN TEMP:  -1; 6HR MAX TEMP:  20;

FREEPORT*      PTSUNNY   20  11  68 S13       30.27F WCI   8
ROCHELLE*      FAIR      21  14  75 S18       30.27F WCI   6
DE KALB*       FAIR      19  11  72 S16G26    30.27F WCI   4
PERU*          FAIR      24  14  66 S21       30.29F WCI   9
$$

ILZ005-006-012>014-019>023-061900-
NORTHEAST ILLINOIS

CITY           SKY/WX    TMP DP  RH WIND       PRES   REMARKS
CHICAGO-OHARE  FAIR      21   9  59 S20G26    30.30F WCI   6
6HR MIN TEMP:   5; 6HR MAX TEMP:  21;

CHICAGO-MIDWAY FAIR      21   8  57 S17G23    30.33F WCI   7
AURORA         CLOUDY    21   9  59 S20       30.30F WCI   6
6HR MIN TEMP:   0; 6HR MAX TEMP:  21;

LANSING*       FAIR      18   8  64 S18       30.37F WCI   2
JOLIET*        PTSUNNY   21   9  61 S15       30.34F WCI   7
WAUKEGAN       FAIR      24   9  52 S20G28    30.26F WCI  10
6HR MIN TEMP:   1; 6HR MAX TEMP:  24;

DUPAGE AIRPORT FAIR      20   9  62 S18       30.29F WCI   5
6HR MIN TEMP:   2; 6HR MAX TEMP:  20;

KANKAKEE*      FAIR      20  11  68 S15G22    30.38F WCI   6
WHEELING       FAIR      24   7  48 S21G26    30.31F WCI   9
6HR MIN TEMP:   6; 6HR MAX TEMP:  24;

MORRIS*        PTSUNNY   20  12  73 S22       30.32F WCI   3
ROMEOVILLE*    FAIR      20  10  63 S17       30.32F WCI   6
NORTHERLY ISL    N/A     20   5  52 S21         N/A  WCI   4
$$

LMZ740>746-061900-
SOUTHERN LAKE MICHIGAN

STATION/POSITION SKY/WX   TEMP    WIND        PRES    VSBY  WAVE
                          AIR SEA DIR/SP/G                  HT/PER
                          (F)     (DEG/KT/KT) (MB)    (MI)  (FT/S)
WAUKEGAN HARBOR            23                   N/A
HARRISON CRIB              19     190/ 28/ 32   N/A
BURNHAM HARBOR             21     190/ 21/ 22   N/A
CALUMET HARBOR             19     170/ 14/ 20 1026.1F
MICHIGAN CITY              17     160/ 15/ 20   N/A
$$

ILZ025>027-034>036-040-047-049-050-058-095>099-061900-
WEST-CENTRAL ILLINOIS

CITY           SKY/WX    TMP DP  RH WIND       PRES   REMARKS
QUINCY         FAIR      35  20  54 SW21G26   30.27F WCI  24
GALESBURG*     FAIR      28  18  66 S18       30.27S WCI  16
MACOMB*        FAIR      32  19  59 SW14      30.29F WCI  22
JACKSONVILLE*  FAIR      31  18  57 S15       30.32F WCI  21
PITTSFIELD*    FAIR      35  20  54 S13G18    30.31F WCI  26
$$

ILZ028>032-037-038-041>044-048-051>054-059>061-061900-
CENTRAL ILLINOIS

CITY           SKY/WX    TMP DP  RH WIND       PRES   REMARKS
PONTIAC        PTSUNNY   21  14  73 S22       30.35F WCI   5
BLOOMINGTON    FAIR      23  14  68 S23       30.33F WCI   7
DECATUR        FAIR      24  13  62 S20       30.38F WCI  10
PEORIA         FAIR      27  15  61 S18       30.30F WCI  14
6HR MIN TEMP:   6; 6HR MAX TEMP:  27;

LACON*         FAIR      27  12  53 S14G20    30.28F WCI  15
LINCOLN*       FAIR      25  14  62 S17G29    30.37F WCI  12
SPRINGFIELD    FAIR      26  16  65 S23       30.33F WCI  11
6HR MIN TEMP:   8; 6HR MAX TEMP:  26;

TAYLORVILLE    FAIR      27  14  59 S22G28    30.37F WCI  12
$$

ILZ033-039-045-046-055>057-062-063-061900-
EAST-CENTRAL ILLINOIS

CITY           SKY/WX    TMP DP  RH WIND       PRES   REMARKS
CHAMPAIGN      CLOUDY    19  10  68 S22       30.40F WCI   2
DANVILLE*      FAIR      20   8  58 S16G22    30.40F WCI   6
RANTOUL*       CLOUDY    20  12  71 S23       30.39F WCI   4
MATTOON        PTSUNNY   21  10  62 S14       30.43F WCI   8
PARIS*         FAIR      22   8  56 S13       30.47F WCI  10
$$

ILZ079-100>102-061900-
SOUTHWEST ILLINOIS

CITY           SKY/WX    TMP DP  RH WIND       PRES   REMARKS
ALTON          SUNNY     30  14  51 S15G21    30.41F WCI  19
BELLEVILLE     FAIR      30  17  58 S10G17    30.43F WCI  21
CAHOKIA*       FAIR      33  19  56 S10G18    30.42F WCI  25
SPARTA*        FAIR      27  13  55 S10       30.48F WCI  17
$$

ILZ064>066-069>071-074>076-080>082-084>086-088>090-092>094-061900-
SOUTH-CENTRAL ILLINOIS

CITY           SKY/WX    TMP DP  RH WIND       PRES   REMARKS
CARBONDALE     FAIR      27  11  51 S15       30.52F WCI  15
6HR MIN TEMP:  -3; 6HR MAX TEMP:  27;

CAIRO*         FAIR      26  10  51 S9        30.58F WCI  16
EFFINGHAM*     FAIR      25   8  46 SE9       30.48F WCI  16
MARION         SUNNY     27  10  50 S12       30.53  WCI  16
MT. VERNON     FAIR      27  14  59 S14       30.51F WCI  15
CENTRALIA*     FAIR      27  11  52 S13       30.47F WCI  16
SALEM*         FAIR      28  12  51 S14       30.47F WCI  17
METROPOLIS*    FAIR      27  11  50 SW6       30.57F WCI  20
$$

ILZ067-068-072-073-078-083-087-091-061900-
SOUTHEAST ILLINOIS

CITY           SKY/WX    TMP DP  RH WIND       PRES   REMARKS
LAWRENCEVILLE  FAIR      22  12  65 S12       30.54F WCI  10
FLORA*         FAIR      23  11  60 S14       30.50F WCI  11
FAIRFIELD*     FAIR      23  10  57 S8        30.52F WCI  14
HARRISBURG*    FAIR      26  10  52 S8        30.54F WCI  17
ROBINSON*      FAIR      23   6  49 S12       30.53F WCI  12
CARMI*         FAIR      24  10  56 S9        30.54F WCI  14
$$

ABBREVIATIONS USED IN REMARKS
   TC - TEMPERATURE IN CELSIUS
  WCI - WIND CHILL INDEX
   HX - HEAT INDEX
  VSB - VISIBILITY
$$




USA.gov is the U.S. government's official web portal to all federal, state and local government web resources and services.